When you browse on this site, cookies collect data to enhance your experience and personalize the content and advertising you see.
Visit our Privacy Policy to learn more. By continuing to use the site, you agree to this use of cookies and data.
  • In Schweiz
  • Länderverzeichnis
  • Für 7 Tage
  • Wassertemperatur
  • Satellitenkarten
  • Wetterkarte
  • Widgets
  • user-avatar
    Anmelden

    Stündliche Wetter Tomakhiv

    Heute, 19 April, Freitag

    Zeit Temperatur Niederschläge Wind Luftdruck Luftfeuchtigkeit
    00:00 +9°C° 0 mm 3 m/S 751 mmHg 67%
    01:00 +8°C° 0 mm 4 m/S 751 mmHg 68%
    02:00 +7°C° 0 mm 3 m/S 751 mmHg 72%
    03:00 +6°C° 0 mm 4 m/S 751 mmHg 71%
    04:00 +6°C° 0 mm 4 m/S 751 mmHg 71%
    05:00 +5°C° 0 mm 4 m/S 751 mmHg 70%
    06:00 +6°C° 0 mm 5 m/S 752 mmHg 66%
    07:00 +7°C° 0 mm 5 m/S 752 mmHg 62%
    08:00 +8°C° 0 mm 6 m/S 752 mmHg 59%
    09:00 +10°C° 0 mm 6 m/S 753 mmHg 53%
    10:00 +11°C° 0 mm 6 m/S 753 mmHg 47%
    11:00 +13°C° 0 mm 6 m/S 753 mmHg 41%
    12:00 +14°C° 0 mm 6 m/S 753 mmHg 39%
    13:00 +15°C° 0 mm 6 m/S 753 mmHg 37%
    14:00 +15°C° 0 mm 6 m/S 753 mmHg 35%
    15:00 +15°C° 0 mm 5 m/S 753 mmHg 36%
    16:00 +14°C° 0 mm 5 m/S 753 mmHg 36%
    17:00 +14°C° 0 mm 5 m/S 753 mmHg 36%
    18:00 +13°C° 0 mm 4 m/S 753 mmHg 40%
    19:00 +12°C° 0 mm 3 m/S 754 mmHg 43%
    20:00 +11°C° 0 mm 3 m/S 754 mmHg 47%
    21:00 +10°C° 0 mm 2 m/S 754 mmHg 51%
    22:00 +9°C° 0 mm 2 m/S 754 mmHg 56%
    23:00 +8°C° 0 mm 2 m/S 754 mmHg 60%

    Morgen, 20 April, Samstag

    Zeit Temperatur Niederschläge Wind Luftdruck Luftfeuchtigkeit
    00:00 +8°C° 0 mm 1 m/S 754 mmHg 64%
    01:00 +7°C° 0 mm 1 m/S 754 mmHg 68%
    02:00 +6°C° 0 mm 0 m/S 754 mmHg 71%
    03:00 +5°C° 0 mm 0 m/S 754 mmHg 72%
    04:00 +6°C° 0 mm 1 m/S 754 mmHg 73%
    05:00 +6°C° 0 mm 1 m/S 754 mmHg 74%
    06:00 +8°C° 0 mm 1 m/S 754 mmHg 68%
    07:00 +9°C° 0 mm 1 m/S 754 mmHg 63%
    08:00 +11°C° 0 mm 1 m/S 754 mmHg 57%
    09:00 +12°C° 0 mm 2 m/S 754 mmHg 51%
    10:00 +13°C° 0 mm 2 m/S 754 mmHg 45%
    11:00 +14°C° 0 mm 2 m/S 753 mmHg 38%
    12:00 +15°C° 0 mm 2 m/S 753 mmHg 39%
    13:00 +15°C° 0 mm 2 m/S 753 mmHg 39%
    14:00 +15°C° 0 mm 2 m/S 752 mmHg 39%
    15:00 +15°C° 0 mm 2 m/S 752 mmHg 41%
    16:00 +15°C° 0 mm 2 m/S 752 mmHg 43%
    17:00 +15°C° 0 mm 2 m/S 751 mmHg 45%
    18:00 +14°C° 0 mm 2 m/S 751 mmHg 49%
    19:00 +13°C° 0 mm 2 m/S 751 mmHg 52%
    20:00 +12°C° 0 mm 2 m/S 751 mmHg 56%
    21:00 +10°C° 0 mm 2 m/S 750 mmHg 58%
    22:00 +10°C° 0 mm 2 m/S 750 mmHg 60%
    23:00 +9°C° 0 mm 2 m/S 750 mmHg 62%

    übermorgen, 21 April, Sonntag

    Zeit Temperatur Niederschläge Wind Luftdruck Luftfeuchtigkeit
    00:00 +9°C° 0.2 mm 2 m/S 750 mmHg 66%
    01:00 +9°C° 0.2 mm 2 m/S 749 mmHg 69%
    02:00 +8°C° 0.2 mm 2 m/S 749 mmHg 73%
    03:00 +8°C° 0 mm 2 m/S 749 mmHg 75%
    04:00 +7°C° 0 mm 2 m/S 749 mmHg 77%
    05:00 +7°C° 0 mm 2 m/S 748 mmHg 80%
    06:00 +8°C° 0 mm 2 m/S 749 mmHg 77%
    07:00 +9°C° 0 mm 2 m/S 749 mmHg 75%
    08:00 +10°C° 0 mm 2 m/S 749 mmHg 72%
    09:00 +10°C° 0.3 mm 2 m/S 749 mmHg 71%
    10:00 +12°C° 0.3 mm 2 m/S 748 mmHg 70%
    11:00 +12°C° 0.3 mm 2 m/S 748 mmHg 68%
    12:00 +13°C° 0.4 mm 2 m/S 748 mmHg 63%
    13:00 +14°C° 0.4 mm 2 m/S 748 mmHg 57%
    14:00 +15°C° 0.4 mm 2 m/S 748 mmHg 52%
    15:00 +14°C° 0.4 mm 3 m/S 748 mmHg 54%
    16:00 +14°C° 0.4 mm 3 m/S 747 mmHg 55%
    17:00 +14°C° 0.4 mm 4 m/S 747 mmHg 57%
    18:00 +12°C° 0.5 mm 3 m/S 747 mmHg 64%
    19:00 +11°C° 0.5 mm 3 m/S 748 mmHg 70%
    20:00 +10°C° 0.5 mm 3 m/S 748 mmHg 77%
    21:00 +8°C° 0 mm 4 m/S 748 mmHg 75%
    22:00 +8°C° 0 mm 4 m/S 748 mmHg 73%
    23:00 +8°C° 0 mm 5 m/S 749 mmHg 71%

    22 April, Montag

    Zeit Temperatur Niederschläge Wind Luftdruck Luftfeuchtigkeit
    00:00 +8°C° 0 mm 5 m/S 749 mmHg 71%
    01:00 +7°C° 0 mm 5 m/S 749 mmHg 70%
    02:00 +7°C° 0 mm 4 m/S 749 mmHg 69%
    03:00 +6°C° 0 mm 4 m/S 750 mmHg 71%
    04:00 +6°C° 0 mm 4 m/S 750 mmHg 73%
    05:00 +5°C° 0 mm 4 m/S 750 mmHg 75%
    06:00 +6°C° 0 mm 5 m/S 751 mmHg 70%
    07:00 +7°C° 0 mm 5 m/S 751 mmHg 64%
    08:00 +9°C° 0 mm 6 m/S 752 mmHg 58%
    09:00 +10°C° 0 mm 6 m/S 752 mmHg 52%
    10:00 +11°C° 0 mm 7 m/S 752 mmHg 47%
    11:00 +12°C° 0 mm 7 m/S 753 mmHg 42%
    12:00 +12°C° 0 mm 7 m/S 752 mmHg 42%
    13:00 +14°C° 0 mm 7 m/S 752 mmHg 41%
    14:00 +14°C° 0 mm 6 m/S 752 mmHg 41%
    15:00 +13°C° 0 mm 6 m/S 752 mmHg 42%
    16:00 +13°C° 0 mm 6 m/S 752 mmHg 43%
    17:00 +13°C° 0 mm 6 m/S 752 mmHg 43%
    18:00 +12°C° 0 mm 5 m/S 752 mmHg 48%
    19:00 +10°C° 0 mm 5 m/S 752 mmHg 52%
    20:00 +10°C° 0 mm 4 m/S 753 mmHg 57%
    21:00 +8°C° 0 mm 4 m/S 753 mmHg 60%
    22:00 +7°C° 0 mm 4 m/S 753 mmHg 63%
    23:00 +6°C° 0 mm 4 m/S 753 mmHg 66%

    23 April, Dienstag

    Zeit Temperatur Niederschläge Wind Luftdruck Luftfeuchtigkeit
    00:00 +6°C° 0 mm 4 m/S 753 mmHg 67%
    01:00 +6°C° 0 mm 4 m/S 753 mmHg 68%
    02:00 +5°C° 0 mm 4 m/S 753 mmHg 69%
    03:00 +5°C° 0 mm 4 m/S 753 mmHg 70%
    04:00 +5°C° 0 mm 4 m/S 753 mmHg 71%
    05:00 +5°C° 0 mm 4 m/S 753 mmHg 72%
    06:00 +6°C° 0 mm 5 m/S 754 mmHg 66%
    07:00 +8°C° 0 mm 5 m/S 754 mmHg 61%
    08:00 +9°C° 0 mm 6 m/S 754 mmHg 55%
    09:00 +11°C° 0 mm 7 m/S 754 mmHg 50%
    10:00 +12°C° 0 mm 7 m/S 754 mmHg 46%
    11:00 +15°C° 0 mm 8 m/S 754 mmHg 41%
    12:00 +15°C° 0 mm 8 m/S 753 mmHg 41%
    13:00 +15°C° 0 mm 8 m/S 753 mmHg 41%
    14:00 +16°C° 0 mm 8 m/S 753 mmHg 41%
    15:00 +15°C° 0 mm 8 m/S 752 mmHg 42%
    16:00 +15°C° 0 mm 7 m/S 752 mmHg 44%
    17:00 +15°C° 0 mm 7 m/S 752 mmHg 45%
    18:00 +14°C° 0 mm 6 m/S 752 mmHg 49%
    19:00 +11°C° 0 mm 6 m/S 752 mmHg 53%
    20:00 +10°C° 0 mm 5 m/S 752 mmHg 58%
    21:00 +9°C° 0 mm 5 m/S 752 mmHg 59%
    22:00 +9°C° 0 mm 6 m/S 753 mmHg 60%
    23:00 +9°C° 0 mm 6 m/S 753 mmHg 61%

    24 April, Mittwoch

    Zeit Temperatur Niederschläge Wind Luftdruck Luftfeuchtigkeit
    00:00 +8°C° 0 mm 6 m/S 753 mmHg 63%
    01:00 +7°C° 0 mm 5 m/S 753 mmHg 64%
    02:00 +7°C° 0 mm 5 m/S 753 mmHg 66%
    03:00 +7°C° 0 mm 5 m/S 753 mmHg 65%
    04:00 +5°C° 0 mm 6 m/S 753 mmHg 65%
    05:00 +5°C° 0 mm 6 m/S 753 mmHg 65%
    06:00 +6°C° 0 mm 7 m/S 753 mmHg 61%
    07:00 +9°C° 0 mm 7 m/S 753 mmHg 57%
    08:00 +10°C° 0 mm 8 m/S 753 mmHg 53%
    09:00 +11°C° 0 mm 8 m/S 753 mmHg 50%
    10:00 +13°C° 0 mm 8 m/S 753 mmHg 47%
    11:00 +15°C° 0 mm 9 m/S 753 mmHg 44%
    12:00 +16°C° 0 mm 8 m/S 753 mmHg 43%
    13:00 +16°C° 0 mm 8 m/S 753 mmHg 42%
    14:00 +17°C° 0 mm 8 m/S 753 mmHg 41%
    15:00 +16°C° 0 mm 7 m/S 753 mmHg 42%
    16:00 +16°C° 0 mm 7 m/S 753 mmHg 44%
    17:00 +16°C° 0 mm 6 m/S 752 mmHg 46%
    18:00 +15°C° 0 mm 6 m/S 752 mmHg 48%
    19:00 +14°C° 0 mm 5 m/S 753 mmHg 51%
    20:00 +13°C° 0 mm 5 m/S 753 mmHg 54%
    21:00 +12°C° 0 mm 5 m/S 753 mmHg 55%
    22:00 +12°C° 0 mm 5 m/S 753 mmHg 55%
    23:00 +10°C° 0 mm 5 m/S 753 mmHg 56%
    Mehr zeigen